Weather History for KARV - July, 2013

Change the Weather History Date:

Wednesday, July 3, 2013

  Actual Average Record
Temperature  
Mean Temperature 64 °F -  
Max Temperature 79 °F 75 °F 93 °F (1966)
Min Temperature 49 °F 52 °F 36 °F (1927)
Degree Days  
Heating Degree Days 2    
Growing Degree Days 14 (Base 50)    
Moisture  
Dew Point 49 °F    
Average Humidity 58    
Maximum Humidity 92    
Minimum Humidity 29    
Precipitation  
Precipitation 0.00 in - - ()
Sea Level Pressure  
Sea Level Pressure 30.08 in    
Wind  
Wind Speed 3 mph (South)    
Max Wind Speed 10 mph    
Max Gust Speed 16 mph    
Visibility 10 miles    
Events      
Averages and records for this station are not official NWS values.
T = Trace of Precipitation, MM = Missing Value Source: NWS Daily Summary

Daily Weather History Graph

Daily Weather History Graph

Search for Another Location

Airport or City:

Trip Planner

Search our weather history database for the weather conditions in past years. The results will help you decide how hot, cold, wet, or windy it might be!

Date:

Astronomy

Jul. 03, 2013 Rise Set
Actual Time 5:13 AM CDT 8:52 PM CDT
Civil Twilight 4:35 AM CDT 9:30 PM CDT
Nautical Twilight 3:44 AM CDT 10:21 PM CDT
Astronomical Twilight 2:35 AM CDT 11:29 PM CDT
Moon 1:58 AM CDT (7/3) 4:57 PM CDT (7/3)
Length of Visible Light 16h 54m
Length of Day
15h 38m
Waning Crescent, 18% of the Moon is Illuminated
Jul 3
Waning Crescent
Jul 8
New
Jul 15
First Quarter
Jul 22
Full
Jul 29
Last Quarter

Hourly Weather History & Observations

Time (CDT) Temp. Dew Point Humidity Pressure Visibility Wind Dir Wind Speed Gust Speed Precip Events Conditions
12:15 AM 59.4 °F 49.5 °F 70% 30.13 in 10.0 mi SSE 3.5 mph - N/A   Clear
12:35 AM 57.0 °F 48.7 °F 74% 30.13 in 10.0 mi Calm Calm - N/A   Clear
12:55 AM 58.1 °F 49.3 °F 72% 30.12 in 10.0 mi Calm Calm - N/A   Clear
1:15 AM 56.8 °F 50.5 °F 79% 30.12 in 10.0 mi Calm Calm - N/A   Clear
1:35 AM 55.4 °F 50.0 °F 82% 30.12 in 10.0 mi Calm Calm - N/A   Clear
1:55 AM 54.5 °F 49.3 °F 83% 30.12 in 10.0 mi Calm Calm - N/A   Clear
2:15 AM 51.8 °F 48.2 °F 88% 30.11 in 10.0 mi Calm Calm - N/A   Clear
2:35 AM 53.1 °F 48.6 °F 85% 30.11 in 10.0 mi SE 4.6 mph - N/A   Clear
2:55 AM 53.4 °F 47.3 °F 80% 30.10 in 10.0 mi Calm Calm - N/A   Clear
3:15 AM 53.8 °F 48.6 °F 82% 30.10 in 10.0 mi Calm Calm - N/A   Clear
3:35 AM 51.8 °F 48.0 °F 87% 30.10 in 10.0 mi Calm Calm - N/A   Clear
3:55 AM 51.8 °F 48.7 °F 89% 30.10 in 10.0 mi Calm Calm - N/A   Clear
4:15 AM 51.8 °F 48.4 °F 88% 30.10 in 10.0 mi Calm Calm - N/A   Clear
4:35 AM 51.8 °F 49.3 °F 91% 30.10 in 10.0 mi Calm Calm - N/A   Clear
4:55 AM 51.8 °F 49.1 °F 90% 30.10 in 10.0 mi Calm Calm - N/A   Clear
5:15 AM 49.5 °F 47.1 °F 92% 30.10 in 10.0 mi Calm Calm - N/A   Clear
5:35 AM 49.8 °F 46.9 °F 90% 30.11 in 10.0 mi Calm Calm - N/A   Clear
5:55 AM 51.8 °F 49.1 °F 90% 30.11 in 10.0 mi Calm Calm - N/A   Clear
6:15 AM 51.8 °F 49.3 °F 91% 30.12 in 10.0 mi Calm Calm - N/A   Clear
6:35 AM 53.1 °F 49.1 °F 86% 30.12 in 10.0 mi Calm Calm - N/A   Clear
6:55 AM 56.8 °F 52.9 °F 87% 30.12 in 10.0 mi Calm Calm - N/A   Clear
7:15 AM 59.4 °F 51.8 °F 76% 30.12 in 10.0 mi South 3.5 mph - N/A   Clear
7:35 AM 59.5 °F 49.6 °F 70% 30.12 in 10.0 mi South 3.5 mph - N/A   Clear
7:55 AM 61.9 °F 49.8 °F 65% 30.12 in 10.0 mi Calm Calm - N/A   Clear
8:15 AM 63.5 °F 48.0 °F 57% 30.12 in 10.0 mi Calm Calm - N/A   Clear
8:35 AM 64.8 °F 46.4 °F 51% 30.13 in 10.0 mi SSW 4.6 mph - N/A   Clear
8:55 AM 67.1 °F 45.9 °F 46% 30.13 in 10.0 mi South 4.6 mph - N/A   Clear
9:15 AM 69.4 °F 46.2 °F 43% 30.13 in 10.0 mi South 4.6 mph - N/A   Clear
9:35 AM 72.0 °F 46.4 °F 40% 30.12 in 10.0 mi SSW 4.6 mph - N/A   Clear
9:55 AM 72.0 °F 46.6 °F 40% 30.12 in 10.0 mi South 5.8 mph - N/A   Clear
10:15 AM 72.0 °F 47.1 °F 41% 30.12 in 10.0 mi South 6.9 mph - N/A   Clear
10:35 AM 72.0 °F 47.1 °F 41% 30.11 in 10.0 mi SSE 5.8 mph - N/A   Clear
10:55 AM 72.0 °F 47.3 °F 41% 30.11 in 10.0 mi Calm Calm - N/A   Clear
11:15 AM 72.9 °F 47.7 °F 41% 30.11 in 10.0 mi SW 4.6 mph - N/A   Clear
11:35 AM 73.9 °F 47.1 °F 38% 30.11 in 10.0 mi Calm Calm - N/A   Clear
11:55 AM 74.5 °F 48.0 °F 39% 30.10 in 10.0 mi SSW 4.6 mph - N/A   Clear
12:15 PM 77.0 °F 48.6 °F 37% 30.10 in 10.0 mi SSE 4.6 mph - N/A   Clear
12:35 PM 76.6 °F 45.5 °F 33% 30.10 in 10.0 mi Calm Calm - N/A   Clear
12:55 PM 77.0 °F 44.4 °F 31% 30.09 in 10.0 mi SE 8.1 mph - N/A   Clear
1:15 PM 77.0 °F 43.0 °F 30% 30.09 in 10.0 mi SE 4.6 mph - N/A   Clear
1:35 PM 77.0 °F 46.0 °F 33% 30.09 in 10.0 mi SE 6.9 mph - N/A   Clear
1:55 PM 77.0 °F 45.7 °F 33% 30.08 in 10.0 mi SSW 8.1 mph - N/A   Clear
2:14 PM 77.0 °F 44.6 °F 32% 30.08 in 10.0 mi Calm Calm - N/A   Clear
2:15 PM 77.0 °F 45.0 °F 32% 30.08 in 10.0 mi Calm Calm - N/A   Clear
2:35 PM 77.0 °F 45.0 °F 32% 30.08 in 10.0 mi South 8.1 mph - N/A   Scattered Clouds
2:55 PM 77.0 °F 44.4 °F 31% 30.07 in 10.0 mi South 5.8 mph - N/A   Mostly Cloudy
3:15 PM 77.0 °F 43.3 °F 30% 30.06 in 10.0 mi WSW 3.5 mph - N/A   Scattered Clouds
3:35 PM 77.0 °F 42.4 °F 29% 30.06 in 10.0 mi SE 5.8 mph - N/A   Clear
3:55 PM 78.3 °F 44.8 °F 30% 30.06 in 10.0 mi ESE 6.9 mph - N/A   Clear
4:15 PM 77.5 °F 44.8 °F 31% 30.05 in 10.0 mi ESE 8.1 mph - N/A   Clear
4:35 PM 77.0 °F 44.4 °F 31% 30.04 in 10.0 mi South 3.5 mph - N/A   Clear
4:55 PM 77.0 °F 45.5 °F 33% 30.04 in 10.0 mi SSE 5.8 mph - N/A   Clear
5:15 PM 77.2 °F 45.5 °F 32% 30.03 in 10.0 mi SSW 8.1 mph - N/A   Clear
5:35 PM 77.0 °F 46.8 °F 34% 30.03 in 10.0 mi SSE 4.6 mph - N/A   Scattered Clouds
5:55 PM 77.0 °F 45.5 °F 33% 30.03 in 10.0 mi Calm Calm - N/A   Scattered Clouds
6:15 PM 77.0 °F 45.7 °F 33% 30.03 in 10.0 mi SW 3.5 mph - N/A   Scattered Clouds
6:35 PM 77.0 °F 49.8 °F 38% 30.03 in 10.0 mi South 3.5 mph - N/A   Scattered Clouds
6:55 PM 73.8 °F 52.7 °F 48% 30.03 in 10.0 mi South 10.4 mph 16.1 mph N/A   Scattered Clouds
7:15 PM 72.0 °F 53.8 °F 53% 30.03 in 10.0 mi South 8.1 mph - N/A   Clear
7:35 PM 72.0 °F 53.4 °F 52% 30.03 in 10.0 mi South 9.2 mph - N/A   Clear
7:55 PM 72.0 °F 54.7 °F 54% 30.03 in 10.0 mi South 9.2 mph - N/A   Clear
8:15 PM 72.0 °F 57.0 °F 59% 30.03 in 10.0 mi South 5.8 mph - N/A   Clear
8:35 PM 69.4 °F 57.2 °F 65% 30.03 in 10.0 mi South 4.6 mph - N/A   Clear
8:55 PM 67.1 °F 55.8 °F 67% 30.03 in 10.0 mi South 5.8 mph - N/A   Clear
9:15 PM 67.1 °F 54.9 °F 65% 30.03 in 10.0 mi South 3.5 mph - N/A   Scattered Clouds
9:35 PM 67.1 °F 55.6 °F 66% 30.03 in 10.0 mi South 4.6 mph - N/A   Mostly Cloudy
9:55 PM 67.1 °F 56.3 °F 68% 30.04 in 10.0 mi South 3.5 mph - N/A   Overcast
10:15 PM 67.1 °F 56.8 °F 70% 30.04 in 10.0 mi South 4.6 mph - N/A   Overcast
10:35 PM 65.7 °F 56.5 °F 72% 30.04 in 10.0 mi South 4.6 mph - N/A   Overcast
10:55 PM 65.3 °F 56.7 °F 74% 30.04 in 10.0 mi South 4.6 mph - N/A   Overcast
11:15 PM 65.3 °F 56.8 °F 74% 30.04 in 10.0 mi South 3.5 mph - N/A   Overcast
11:35 PM 64.4 °F 57.4 °F 78% 30.04 in 10.0 mi South 4.6 mph - N/A   Overcast
11:55 PM 64.4 °F 57.4 °F 78% 30.04 in 10.0 mi SSW 4.6 mph - N/A   Overcast